Showing default

HJS-9A, 68831

Orbit data source: Space-Track

HJS-9A, 68831 is a payload satellite owned by Zhongguo Xingwang (CN) in LEO that was launched on Fri, 24 Apr 2026 UTC via a CHANG ZHENG 2D launch vehicle from the Xichang Space Center, China (XSC). Payload-class satellites include a variety of spacecraft equipped with specific instruments for various scientific and technological missions. These include communications satellites like Starlink; space stations such as the ISS; scientific satellites like the Hubble; Earth observation satellites from companies like Planet Labs, Umbra, and HawkEye 360; GPS; miniature CubeSats for education and research; and military/defense satellites.

Loading next visibility...
Identifier
68831, 2026-091A
Orbit
LEO
Country
Flag of CNCN / PRC
Related business
Manufacturer
YINNT
Mission
Operational spacecraft
Bus & Motor
Unknown
Mass
~300 kg wet, ~300 kg dry
Launch date (UTC)
2026-04-24 (2 months ago)
Launch vehicle
CHANG ZHENG 2D
Launch site
Xichang Space Center, China (XSC)
Object type
Payload
Rocket body
Debris
Shape & HBR
Unknown shape, 14.5 m
Radar Cross Section
Large (>1 m²)

Expand to show TLE details & history
Last TLE update: 21 hours ago

TLE from 21 hours ago
0 HJS-9A
1 68831U 26091A   26170.96348446  .00003636  00000-0  18512-3 0  9992
2 68831  55.0039   9.5564 0014055  62.4556 297.7889 15.19231741  8622
Epoch: 2026-06-19T23:07Z
TLE epoch observation values (Epoch: 2026-06-19T23:07:25.057Z)
Latitude
-0.00008°
Longitude
114.51702°
Altitude
504.75 km
Speed
7.615 km/s
True Right ascension
00h 38m 13s
True Declination
0° 00' 00"
Sunlit
Object was in daylight at epoch
Visualization orbit readout
Latitude
Unknown
Longitude
Unknown
Altitude
Unknown
Speed
Unknown
Apparent Right ascension
Unknown
Apparent Declination
Unknown
Sunlit
N/A
Visualization observer readout
Local Sidereal Time
07:22:46
Azimuth
Unknown
Elevation
Unknown
Doppler factor
Unknown
Orbital elements
Apogee altitude
517.802 km
Perigee altitude
498.444 km
Semi-major axis
6,886.26 km
Eccentricity
0.00141
Inclination
55.0039°
RAAN
9.5564°
Arg. of periapsis
62.4556°
True anomaly
297.6463°
Mean anomaly
297.7889°
Eccentric anomaly
297.71761°
Mean motion
3.79811 °/min
Orbital period
94.78 mins
BSTAR
0.00018512
Loading maneuver chart data...
Computing Atmospheric mass density...
Loading historical data...
Loading historical data...
Loading historical data...
Loading historical data...
Loading historical data...
Loading historical data...
Loading historical data...
Other satellites on launch #91 in the year 2026 (2026-04-24 UTC)

Documentation

Showing up to 5 results
|